Location: Laterina
(43.5167°N, 11.7167°E)
Time: 15:54:10
(UTC+00:00)

H-2A R/B - Pass Details

Date: 24 September 2020
Orbit: 734 x 836 km, 98.2° (Epoch: 25 October)

Event Time Altitude Azimuth Distance (km) Brightness Sun altitude
Rises 19:25:58 0° 203° (SSW) 3,172 5.2 -25.4°
Reaches altitude 10° 19:28:44 10° 219° (SW) 2,266 4.6 -25.9°
Maximum altitude 19:32:29 21° 268° (W) 1,658 4.3 -26.5°
Drops below altitude 10° 19:36:19 10° 317° (NW) 2,323 5.4 -27.1°
Sets 19:39:13 0° 333° (NNW) 3,276 6.1 -27.6°
